When you browse on this site, cookies collect data to enhance your experience and personalize the content and advertising you see.
Visit our Privacy Policy to learn more. By continuing to use the site, you agree to this use of cookies and data.
  • In Hungary
  • List of Countries
  • For 7 days
  • Water Temperature
  • Satellite Maps
  • Weather Map
  • News
  • Weather Widgets
  • user-avatar
    Login

    Hourly Weather Seversk

    Today, 15 February, Friday

    Time Temperature Precipitation Wind Pressure Humidity
    00:00 -3°C° 0 mm 1 mps 765 mmHg 90%
    01:00 -3°C° 0 mm 1 mps 765 mmHg 90%
    02:00 -5°C° 0 mm 2 mps 765 mmHg 91%
    03:00 -7°C° 0 mm 1 mps 765 mmHg 92%
    04:00 -8°C° 0 mm 1 mps 765 mmHg 93%
    05:00 -8°C° 0 mm 1 mps 765 mmHg 94%
    06:00 -9°C° 0 mm 1 mps 765 mmHg 94%
    07:00 -8°C° 0 mm 1 mps 765 mmHg 94%
    08:00 -8°C° 0 mm 0 mps 765 mmHg 93%
    09:00 -7°C° 0 mm 0 mps 766 mmHg 92%
    10:00 -6°C° 0 mm 0 mps 765 mmHg 90%
    11:00 -3°C° 0 mm 1 mps 765 mmHg 88%
    12:00 -2°C° 0 mm 1 mps 765 mmHg 86%
    13:00 -1°C° 0 mm 1 mps 765 mmHg 87%
    14:00 -3°C° 0 mm 2 mps 764 mmHg 88%
    15:00 -2°C° 0 mm 2 mps 764 mmHg 89%
    16:00 -3°C° 0 mm 2 mps 763 mmHg 90%
    17:00 -4°C° 0 mm 2 mps 763 mmHg 91%
    18:00 -5°C° 0 mm 2 mps 762 mmHg 93%
    19:00 -6°C° 0 mm 3 mps 762 mmHg 93%
    20:00 -6°C° 0 mm 3 mps 761 mmHg 94%
    21:00 -7°C° 0 mm 3 mps 761 mmHg 95%
    22:00 -6°C° 0 mm 3 mps 761 mmHg 94%
    23:00 -4°C° 0 mm 3 mps 760 mmHg 93%

    Tomorrow, 16 February, Saturday

    Time Temperature Precipitation Wind Pressure Humidity
    00:00 -3°C° 0 mm 4 mps 760 mmHg 93%
    01:00 -3°C° 0 mm 4 mps 760 mmHg 93%
    02:00 -3°C° 0 mm 4 mps 759 mmHg 94%
    03:00 -3°C° 0 mm 4 mps 759 mmHg 94%
    04:00 -2°C° 0 mm 4 mps 758 mmHg 94%
    05:00 -2°C° 0 mm 4 mps 758 mmHg 94%
    06:00 -2°C° 0 mm 4 mps 758 mmHg 94%
    07:00 -1°C° 0 mm 4 mps 758 mmHg 94%
    08:00 -1°C° 0 mm 4 mps 758 mmHg 93%
    09:00 -1°C° 0 mm 4 mps 758 mmHg 93%
    10:00 -1°C° 0 mm 4 mps 758 mmHg 95%
    11:00 -1°C° 0 mm 4 mps 758 mmHg 97%
    12:00 -1°C° 0 mm 4 mps 758 mmHg 98%
    13:00 -1°C° 0 mm 4 mps 758 mmHg 99%
    14:00 -1°C° 0 mm 4 mps 758 mmHg 99%
    15:00 -1°C° 0 mm 4 mps 758 mmHg 99%
    16:00 -1°C° 0 mm 4 mps 758 mmHg 97%
    17:00 -1°C° 0 mm 4 mps 758 mmHg 96%
    18:00 -1°C° 0 mm 4 mps 758 mmHg 94%
    19:00 -1°C° 0 mm 4 mps 758 mmHg 94%
    20:00 -1°C° 0 mm 4 mps 758 mmHg 95%
    21:00 0°C° 0 mm 3 mps 758 mmHg 95%
    22:00 0°C° 0 mm 3 mps 758 mmHg 95%
    23:00 0°C° 0 mm 3 mps 758 mmHg 95%

    Day after tomorrow, 17 February, Sunday

    Time Temperature Precipitation Wind Pressure Humidity
    00:00 0°C° 0 mm 3 mps 758 mmHg 96%
    01:00 0°C° 0 mm 3 mps 757 mmHg 95%
    02:00 -1°C° 0 mm 4 mps 757 mmHg 95%
    03:00 -1°C° 0 mm 4 mps 757 mmHg 95%
    04:00 -1°C° 0 mm 4 mps 757 mmHg 94%
    05:00 -2°C° 0 mm 5 mps 756 mmHg 93%
    06:00 -2°C° 0 mm 5 mps 756 mmHg 92%
    07:00 -2°C° 0 mm 5 mps 756 mmHg 92%
    08:00 -2°C° 0 mm 5 mps 755 mmHg 93%
    09:00 -2°C° 0 mm 5 mps 755 mmHg 93%
    10:00 -1°C° 0 mm 5 mps 755 mmHg 95%
    11:00 -2°C° 0 mm 6 mps 754 mmHg 97%
    12:00 -1°C° 0 mm 6 mps 754 mmHg 99%
    13:00 -1°C° 0 mm 6 mps 753 mmHg 97%
    14:00 +1°C° 0 mm 6 mps 753 mmHg 96%
    15:00 +1°C° 0 mm 6 mps 752 mmHg 94%
    16:00 -1°C° 0 mm 6 mps 752 mmHg 93%
    17:00 -1°C° 0 mm 6 mps 752 mmHg 91%
    18:00 -2°C° 0 mm 6 mps 751 mmHg 90%
    19:00 -2°C° 0 mm 6 mps 751 mmHg 91%
    20:00 -2°C° 0 mm 6 mps 751 mmHg 91%
    21:00 -2°C° 0 mm 7 mps 751 mmHg 92%
    22:00 -2°C° 0.1 mm 6 mps 752 mmHg 92%
    23:00 -2°C° 0.1 mm 6 mps 752 mmHg 92%

    18 February, Monday

    Time Temperature Precipitation Wind Pressure Humidity
    00:00 0°C° 0.1 mm 5 mps 752 mmHg 92%
    01:00 -1°C° 0 mm 5 mps 752 mmHg 89%
    02:00 -2°C° 0 mm 6 mps 752 mmHg 86%
    03:00 -2°C° 0 mm 6 mps 752 mmHg 83%
    04:00 -2°C° 0 mm 6 mps 753 mmHg 83%
    05:00 -2°C° 0 mm 5 mps 753 mmHg 82%
    06:00 -2°C° 0 mm 5 mps 753 mmHg 82%
    07:00 -4°C° 0 mm 5 mps 754 mmHg 84%
    08:00 -4°C° 0 mm 5 mps 754 mmHg 85%
    09:00 -5°C° 0 mm 6 mps 755 mmHg 86%
    10:00 -4°C° 0 mm 6 mps 755 mmHg 84%
    11:00 -4°C° 0 mm 6 mps 755 mmHg 81%
    12:00 -4°C° 0 mm 6 mps 756 mmHg 79%
    13:00 -4°C° 0 mm 6 mps 756 mmHg 78%
    14:00 -4°C° 0 mm 6 mps 756 mmHg 77%
    15:00 -4°C° 0 mm 6 mps 757 mmHg 75%
    16:00 -4°C° 0 mm 6 mps 757 mmHg 75%
    17:00 -4°C° 0 mm 6 mps 758 mmHg 75%
    18:00 -5°C° 0 mm 6 mps 758 mmHg 75%
    19:00 -5°C° 0 mm 6 mps 759 mmHg 75%
    20:00 -5°C° 0 mm 5 mps 760 mmHg 75%
    21:00 -6°C° 0 mm 5 mps 760 mmHg 75%
    22:00 -6°C° 0 mm 5 mps 761 mmHg 74%
    23:00 -5°C° 0 mm 4 mps 761 mmHg 74%

    19 February, Tuesday

    Time Temperature Precipitation Wind Pressure Humidity
    00:00 -5°C° 0 mm 4 mps 762 mmHg 73%
    01:00 -7°C° 0 mm 4 mps 762 mmHg 74%
    02:00 -6°C° 0 mm 3 mps 763 mmHg 74%
    03:00 -6°C° 0 mm 3 mps 763 mmHg 75%
    04:00 -6°C° 0 mm 3 mps 763 mmHg 78%
    05:00 -7°C° 0 mm 3 mps 764 mmHg 81%
    06:00 -7°C° 0 mm 3 mps 764 mmHg 84%
    07:00 -6°C° 0 mm 2 mps 764 mmHg 84%
    08:00 -6°C° 0 mm 2 mps 765 mmHg 83%
    09:00 -6°C° 0 mm 2 mps 765 mmHg 83%
    10:00 -4°C° 0 mm 1 mps 766 mmHg 79%
    11:00 -3°C° 0 mm 1 mps 766 mmHg 75%
    12:00 -2°C° 0 mm 1 mps 766 mmHg 71%
    13:00 -2°C° 0 mm 1 mps 766 mmHg 69%
    14:00 -2°C° 0 mm 0 mps 766 mmHg 67%
    15:00 -2°C° 0 mm 0 mps 766 mmHg 65%
    16:00 -2°C° 0 mm 0 mps 765 mmHg 68%
    17:00 -3°C° 0 mm 0 mps 765 mmHg 71%
    18:00 -2°C° 0 mm 1 mps 765 mmHg 74%
    19:00 -2°C° 0 mm 1 mps 765 mmHg 76%
    20:00 -4°C° 0 mm 2 mps 765 mmHg 78%
    21:00 -5°C° 0 mm 2 mps 765 mmHg 80%
    22:00 -5°C° 0 mm 2 mps 765 mmHg 81%
    23:00 -6°C° 0 mm 3 mps 764 mmHg 81%

    20 February, Wednesday

    Time Temperature Precipitation Wind Pressure Humidity
    00:00 -6°C° 0 mm 3 mps 764 mmHg 81%
    01:00 -6°C° 0 mm 3 mps 764 mmHg 80%
    02:00 -6°C° 0 mm 3 mps 763 mmHg 80%
    03:00 -6°C° 0 mm 3 mps 763 mmHg 79%
    04:00 -6°C° 0 mm 3 mps 763 mmHg 79%
    05:00 -6°C° 0 mm 3 mps 762 mmHg 79%
    06:00 -6°C° 0 mm 3 mps 762 mmHg 79%
    07:00 -7°C° 0 mm 4 mps 761 mmHg 78%
    08:00 -7°C° 0 mm 4 mps 761 mmHg 77%
    09:00 -5°C° 0 mm 4 mps 761 mmHg 77%
    10:00 -5°C° 0 mm 5 mps 760 mmHg 73%
    11:00 -4°C° 0 mm 5 mps 760 mmHg 70%
    12:00 -1°C° 0 mm 5 mps 759 mmHg 67%
    13:00 -1°C° 0 mm 5 mps 759 mmHg 65%
    14:00 0°C° 0 mm 5 mps 758 mmHg 64%
    15:00 +1°C° 0 mm 5 mps 758 mmHg 63%
    16:00 +1°C° 0 mm 5 mps 757 mmHg 70%
    17:00 0°C° 0 mm 5 mps 757 mmHg 77%
    18:00 0°C° 0 mm 5 mps 757 mmHg 85%
    19:00 0°C° 0 mm 5 mps 757 mmHg 87%
    20:00 0°C° 0 mm 5 mps 757 mmHg 90%
    21:00 0°C° 0 mm 5 mps 756 mmHg 92%
    22:00 0°C° 0.1 mm 5 mps 756 mmHg 93%
    23:00 0°C° 0.1 mm 5 mps 756 mmHg 94%
    Show more